• In Italy
  • List of Countries
  • For 7 days
  • Water Temperature
  • Satellite Maps
  • Weather Map
  • Weather Widgets
  • user-avatar
    Login

    Hourly Weather Beja

    Today, 24 September, Monday

    Time Temperature Precipitation Wind Pressure Humidity
    00:00 +27°C° 0 mm 2 mps 744 mmHg 31%
    01:00 +27°C° 0 mm 2 mps 744 mmHg 32%
    02:00 +26°C° 0 mm 1 mps 743 mmHg 32%
    03:00 +26°C° 0 mm 1 mps 743 mmHg 32%
    04:00 +26°C° 0 mm 1 mps 743 mmHg 33%
    05:00 +26°C° 0 mm 1 mps 744 mmHg 35%
    06:00 +28°C° 0 mm 1 mps 744 mmHg 31%
    07:00 +30°C° 0 mm 2 mps 744 mmHg 27%
    08:00 +32°C° 0 mm 2 mps 744 mmHg 24%
    09:00 +35°C° 0 mm 2 mps 744 mmHg 21%
    10:00 +38°C° 0 mm 2 mps 744 mmHg 19%
    11:00 +39°C° 0 mm 2 mps 744 mmHg 17%
    12:00 +39°C° 0 mm 2 mps 744 mmHg 17%
    13:00 +40°C° 0 mm 2 mps 744 mmHg 16%
    14:00 +41°C° 0 mm 2 mps 743 mmHg 16%
    15:00 +39°C° 0 mm 2 mps 743 mmHg 17%
    16:00 +38°C° 0 mm 2 mps 743 mmHg 19%
    17:00 +37°C° 0 mm 2 mps 742 mmHg 20%
    18:00 +35°C° 0 mm 2 mps 743 mmHg 24%
    19:00 +32°C° 0 mm 2 mps 743 mmHg 28%
    20:00 +30°C° 0 mm 3 mps 743 mmHg 31%
    21:00 +29°C° 0 mm 2 mps 743 mmHg 33%
    22:00 +28°C° 0 mm 2 mps 743 mmHg 35%
    23:00 +27°C° 0 mm 2 mps 743 mmHg 37%

    Tomorrow, 25 September, Tuesday

    Time Temperature Precipitation Wind Pressure Humidity
    00:00 +27°C° 0 mm 2 mps 743 mmHg 38%
    01:00 +26°C° 0 mm 1 mps 743 mmHg 39%
    02:00 +26°C° 0 mm 1 mps 742 mmHg 41%
    03:00 +25°C° 0 mm 1 mps 742 mmHg 41%
    04:00 +25°C° 0 mm 1 mps 742 mmHg 42%
    05:00 +25°C° 0 mm 1 mps 742 mmHg 43%
    06:00 +27°C° 0 mm 1 mps 743 mmHg 38%
    07:00 +29°C° 0 mm 1 mps 743 mmHg 33%
    08:00 +31°C° 0 mm 2 mps 744 mmHg 28%
    09:00 +34°C° 0 mm 2 mps 744 mmHg 25%
    10:00 +36°C° 0 mm 2 mps 744 mmHg 22%
    11:00 +38°C° 0 mm 3 mps 744 mmHg 18%
    12:00 +38°C° 0 mm 3 mps 743 mmHg 18%
    13:00 +38°C° 0 mm 3 mps 743 mmHg 19%
    14:00 +38°C° 0 mm 3 mps 743 mmHg 19%
    15:00 +37°C° 0 mm 4 mps 743 mmHg 23%
    16:00 +35°C° 0 mm 4 mps 742 mmHg 28%
    17:00 +33°C° 0 mm 4 mps 742 mmHg 33%
    18:00 +30°C° 0 mm 3 mps 743 mmHg 39%
    19:00 +28°C° 0 mm 2 mps 743 mmHg 46%
    20:00 +27°C° 0 mm 2 mps 744 mmHg 53%
    21:00 +26°C° 0 mm 2 mps 744 mmHg 56%
    22:00 +26°C° 0 mm 1 mps 744 mmHg 59%
    23:00 +25°C° 0 mm 1 mps 744 mmHg 62%

    Day after tomorrow, 26 September, Wednesday

    Time Temperature Precipitation Wind Pressure Humidity
    00:00 +25°C° 0 mm 1 mps 744 mmHg 66%
    01:00 +24°C° 0 mm 1 mps 744 mmHg 69%
    02:00 +24°C° 0 mm 1 mps 743 mmHg 73%
    03:00 +24°C° 0 mm 1 mps 744 mmHg 75%
    04:00 +23°C° 0 mm 1 mps 744 mmHg 77%
    05:00 +23°C° 0 mm 1 mps 744 mmHg 79%
    06:00 +25°C° 0 mm 2 mps 744 mmHg 69%
    07:00 +27°C° 0 mm 2 mps 745 mmHg 60%
    08:00 +28°C° 0 mm 3 mps 745 mmHg 51%
    09:00 +30°C° 0 mm 3 mps 745 mmHg 44%
    10:00 +33°C° 0 mm 3 mps 745 mmHg 36%
    11:00 +35°C° 0 mm 3 mps 745 mmHg 29%
    12:00 +36°C° 0 mm 3 mps 745 mmHg 28%
    13:00 +37°C° 0 mm 3 mps 745 mmHg 26%
    14:00 +37°C° 0 mm 3 mps 744 mmHg 24%
    15:00 +36°C° 0 mm 3 mps 744 mmHg 28%
    16:00 +35°C° 0 mm 3 mps 744 mmHg 32%
    17:00 +33°C° 0 mm 3 mps 744 mmHg 36%
    18:00 +30°C° 0 mm 3 mps 745 mmHg 44%
    19:00 +28°C° 0 mm 2 mps 745 mmHg 52%
    20:00 +26°C° 0 mm 2 mps 746 mmHg 60%
    21:00 +26°C° 0 mm 2 mps 746 mmHg 63%
    22:00 +25°C° 0 mm 1 mps 746 mmHg 66%
    23:00 +25°C° 0 mm 1 mps 746 mmHg 69%

    27 September, Thursday

    Time Temperature Precipitation Wind Pressure Humidity
    00:00 +24°C° 0 mm 1 mps 746 mmHg 70%
    01:00 +24°C° 0 mm 1 mps 746 mmHg 72%
    02:00 +21°C° 0 mm 0 mps 745 mmHg 73%
    03:00 +23°C° 0 mm 1 mps 745 mmHg 73%
    04:00 +23°C° 0 mm 1 mps 745 mmHg 74%
    05:00 +23°C° 0 mm 1 mps 745 mmHg 74%
    06:00 +25°C° 0 mm 1 mps 746 mmHg 66%
    07:00 +26°C° 0 mm 2 mps 746 mmHg 59%
    08:00 +28°C° 0 mm 2 mps 747 mmHg 51%
    09:00 +30°C° 0 mm 2 mps 747 mmHg 45%
    10:00 +32°C° 0 mm 2 mps 747 mmHg 38%
    11:00 +35°C° 0 mm 2 mps 747 mmHg 32%
    12:00 +35°C° 0 mm 2 mps 746 mmHg 30%
    13:00 +36°C° 0 mm 2 mps 745 mmHg 29%
    14:00 +37°C° 0 mm 2 mps 745 mmHg 27%
    15:00 +35°C° 0.1 mm 2 mps 745 mmHg 30%
    16:00 +34°C° 0.1 mm 2 mps 745 mmHg 33%
    17:00 +32°C° 0.1 mm 2 mps 745 mmHg 36%
    18:00 +30°C° 0.7 mm 2 mps 745 mmHg 41%
    19:00 +29°C° 0.7 mm 3 mps 745 mmHg 47%
    20:00 +27°C° 0.7 mm 3 mps 745 mmHg 53%
    21:00 +26°C° 0 mm 3 mps 745 mmHg 56%
    22:00 +25°C° 0 mm 2 mps 745 mmHg 60%
    23:00 +25°C° 0 mm 2 mps 745 mmHg 63%

    28 September, Friday

    Time Temperature Precipitation Wind Pressure Humidity
    00:00 +24°C° 0.1 mm 2 mps 744 mmHg 66%
    01:00 +24°C° 0.1 mm 2 mps 744 mmHg 68%
    02:00 +23°C° 0.1 mm 2 mps 744 mmHg 71%
    03:00 +23°C° 0.1 mm 2 mps 744 mmHg 73%
    04:00 +22°C° 0.1 mm 1 mps 744 mmHg 76%
    05:00 +22°C° 0.1 mm 1 mps 744 mmHg 78%
    06:00 +23°C° 0 mm 1 mps 744 mmHg 72%
    07:00 +25°C° 0 mm 1 mps 744 mmHg 66%
    08:00 +26°C° 0 mm 1 mps 744 mmHg 60%
    09:00 +28°C° 0 mm 1 mps 744 mmHg 53%
    10:00 +30°C° 0 mm 1 mps 744 mmHg 46%
    11:00 +32°C° 0 mm 1 mps 744 mmHg 39%
    12:00 +32°C° 0 mm 1 mps 743 mmHg 37%
    13:00 +33°C° 0 mm 1 mps 743 mmHg 35%
    14:00 +33°C° 0 mm 1 mps 742 mmHg 34%
    15:00 +32°C° 0 mm 2 mps 742 mmHg 37%
    16:00 +31°C° 0 mm 2 mps 742 mmHg 40%
    17:00 +30°C° 0 mm 3 mps 742 mmHg 43%
    18:00 +28°C° 0.2 mm 2 mps 742 mmHg 48%
    19:00 +27°C° 0.2 mm 2 mps 742 mmHg 54%
    20:00 +26°C° 0.2 mm 2 mps 742 mmHg 59%
    21:00 +25°C° 0.2 mm 2 mps 742 mmHg 61%
    22:00 +24°C° 0.2 mm 2 mps 742 mmHg 64%
    23:00 +24°C° 0.2 mm 2 mps 741 mmHg 66%

    29 September, Saturday

    Time Temperature Precipitation Wind Pressure Humidity
    00:00 +23°C° 0.1 mm 1 mps 741 mmHg 68%
    01:00 +23°C° 0.1 mm 1 mps 741 mmHg 69%
    02:00 +23°C° 0.1 mm 1 mps 740 mmHg 71%
    03:00 +23°C° 0.1 mm 1 mps 741 mmHg 72%
    04:00 +22°C° 0.1 mm 1 mps 741 mmHg 73%
    05:00 +22°C° 0.1 mm 1 mps 741 mmHg 74%
    06:00 +23°C° 0 mm 1 mps 741 mmHg 68%
    07:00 +25°C° 0 mm 1 mps 741 mmHg 63%
    08:00 +26°C° 0 mm 1 mps 741 mmHg 57%
    09:00 +28°C° 0.1 mm 1 mps 741 mmHg 51%
    10:00 +30°C° 0.1 mm 1 mps 741 mmHg 44%
    11:00 +32°C° 0.1 mm 1 mps 741 mmHg 38%
    12:00 +32°C° 0 mm 1 mps 741 mmHg 37%
    13:00 +34°C° 0 mm 2 mps 741 mmHg 35%
    14:00 +34°C° 0 mm 2 mps 740 mmHg 34%
    15:00 +31°C° 0.1 mm 2 mps 740 mmHg 39%
    16:00 +30°C° 0.1 mm 3 mps 740 mmHg 43%
    17:00 +29°C° 0.1 mm 3 mps 741 mmHg 48%
    18:00 +27°C° 0.2 mm 3 mps 741 mmHg 54%
    19:00 +26°C° 0.2 mm 2 mps 741 mmHg 61%
    20:00 +24°C° 0.2 mm 2 mps 742 mmHg 67%
    21:00 +24°C° 0 mm 1 mps 742 mmHg 68%
    22:00 +24°C° 0 mm 1 mps 742 mmHg 70%
    23:00 +23°C° 0 mm 1 mps 742 mmHg 71%
    Show more